Weather in Iskra

Russia / Pskov Oblast     57°46′19″N   29°52′26″E
temp.,
°C
wind,
m/s
gust,
m/s
humid.,
%
clouds,
%
prec.,
mm/h
press.,
hPa
HPBL,
m
15 april, thu
thu1500:00+2nne278879 0.0 1024155
03:00+2nne31186100 0.0 1024353
06:00+1nne4138293 0.0 1024456
09:00+4ne5126985 0.0 1025648
12:00+7ne61055100 0.0 1025924
15:00+9ne6105197 0.0 10241205
18:00+7ne51160100 0.0 10231035
21:00+7ne51362100 0.1 1024895
16 april, fri
fri1600:00+6ne51370100 0.0 1023682
03:00+5ne51378100 0.0 1023590
06:00+4ne51381100 0.0 1023508
09:00+5ne51374100 0.0 1024583
12:00+9ene6967100 0.0 1024822
15:00+12ene5862100 0.0 10241067
18:00+12ene5966100 0.0 10241035
21:00+9ene41174100 0.0 1025597
17 april, sat
sat1700:00+8ene41271100 0.0 1026593
03:00+5ne4127170 0.0 1026446
06:00+4ne41275100 0.0 1026433
09:00+6ene41070100 0.0 1027508
12:00+10ene4765100 0.0 1027680
15:00+13ene4759100 0.0 10271064
18:00+13ene486098 0.0 10261026
21:00+8ne3116983 0.0 1027265
18 april, sun
sun1800:00+6ne310715 0.0 1028249
03:00+4ne210795 0.0 1028204
06:00+2ne29860 0.0 1028193
09:00+8ene48610 0.0 1028444
12:00+12ene57455 0.0 10271420
15:00+14ene57385 0.0 10261935
18:00+13ene47445 0.0 10262021
21:00+8ne3116437 0.0 1027271
19 april, mon
mon1900:00+5e310755 0.0 1028227
03:00+4e26825 0.0 1029130
06:00+3e24865 0.0 102979
09:00+8e35635 0.0 1029386
12:00+13e45465 0.0 10291496
15:00+14e354179 0.0 10282099
18:00+12ene2556100 0.0 1028165
21:00+10e41062100 0.0 1028455